www.pogodaiklimat.ru

Погода и климат >> Архив погоды >> Мьянма >> Хмавби


ПОГОДА в Хмавби

  • Прогноз погоды в Хмавби
  • Монитор погоды в Хмавби

АРХИВ ПОГОДЫ в Хмавби

Время (UTC), дата Ветер
(напр.,м/с)
 
Видим.   Явления Облачность Т
(С)
Тd
(С)
f
(%)
Тe
(С)
Тes
(С)
Комфортность P
(гПа)
Po
(гПа)
Тmin
(С)
Tmax
(С)
R
(мм)
R24
(мм)
S
(см)
00 17.09 штиль 0 5000 м {морось} 9/5 300 м
[Cb cap Ac As]
+24.5 +24.5 100 +34 +34 очень
душно
1006.1 1004.7 +23.5 0.0
03 17.09 ЮВ 4 6000 м 6/4 600 м
[Cu Sc Ac trans]
+30.0 +25.3 76 +44 +48 опасность
перегрева
1007.6 1006.2
06 17.09 В 5 6000 м 8/5 300 м
[Cu Sc Ac trans]
+32.0 +27.3 76 +50 +54 опасность
перегрева
1006.4 1005.0
09 17.09 В 5 7000 м 5/4 300 м
[Cu Sc Ac trans]
+32.8 +26.6 70 +50 +52 опасность
перегрева
1004.4 1003.1
12 17.09 штиль 0 6000 м 4/4 300 м
[Cu Sc]
+30.5 +26.0 77 +46 +46 опасность
перегрева
1005.0 1003.6 +33.9
00 18.09 штиль 0 5000 м дымка 4/3 300 м
[Cu Sc Ac trans]
+25.0 +25.0 100 +36 +36 очень
душно
1007.8 1006.4 +25.0
03 18.09 ЮВ 2 6000 м 5/4 300 м
[Cu Sc Ac trans]
+30.5 +26.7 80 +47 +54 опасность
перегрева
1009.1 1007.7
06 18.09 ЮВ 5 7000 м 6/4 300 м
[Cu Sc Ac trans]
+32.5 +27.8 76 +52 +57 опасность
перегрева
1007.9 1006.5
09 18.09 штиль 0 7000 м 5/4 300 м
[Cu Sc Ac trans]
+34.0 +27.0 67 +52 +58 опасность
перегрева
1004.5 1003.2
12 18.09 штиль 0 7000 м 4/4 300 м
[Cu Sc]
+31.0 +26.7 78 +48 +48 опасность
перегрева
1006.3 1004.9 +34.9
00 19.09 штиль 0 5000 м {морось} 10/6 300 м
[Cb cap Ac As]
+24.0 +24.0 100 +33 +33 очень
душно
1008.9 1007.5 +22.8 3
03 19.09 штиль 0 6000 м 10/6 300 м
[Cb cap Ac As]
+25.0 +25.0 100 +36 +38 очень
душно
1010.6 1009.2
06 19.09 ЮЗ 2 6000 м 9/6 300 м
[Cb cap Ac trans]
+30.5 +26.6 80 +47 +52 опасность
перегрева
1008.3 1006.9
09 19.09 штиль 0 6000 м 9/8 300 м
[Cb cap Ac trans]
+32.0 +28.1 80 +53 +54 опасность
перегрева
1005.5 1004.1
12 19.09 штиль 0 6000 м 5/5 300 м
[Cb cap]
+30.0 +26.6 82 +46 +46 опасность
перегрева
1006.4 1005.0 +33.5
00 20.09 штиль 0 6000 м {гроза, дождь} 8/6 300 м
[Cb cap Ac lent]
+24.0 +24.0 100 +33 +33 очень
душно
1008.2 1006.8 +22.6 41
03 20.09 штиль 0 6000 м 8/6 300 м
[Cb cap Ac trans]
+28.0 +23.3 76 +38 +43 очень
душно
1009.8 1008.4
06 20.09 ЮВ 5 6000 м 8/8 300 м
[Cb cap]
+31.0 +26.7 78 +48 +50 опасность
перегрева
1008.7 1007.3
09 20.09 ЮЗ 5 6000 м гроза без осадков {морось} 9/6 300 м
[Cb cap Ac As]
+30.0 +26.6 82 +46 +47 опасность
перегрева
1005.2 1003.8
12 20.09 штиль 0 6000 м {гроза, дождь} 8/6 300 м
[Cb cap Ac trans]
+25.5 +25.5 100 +37 +37 очень
душно
1005.4 1004.0 +32.0 9
00 21.09 штиль 0 6000 м {дождь} 8/6 300 м
[Cb cap Ac trans]
+24.0 +24.0 100 +33 +33 очень
душно
1006.3 1004.9 +22.6 18
03 21.09 З 3 7000 м {морось} 8/6 300 м
[Cb calv Ci fib]
+29.5 +27.0 86 +46 +50 опасность
перегрева
1007.8 1006.4
09 21.09 ЮЗ 2 7000 м 8/6 300 м
[Cb calv Ac trans]
+29.0 +25.9 83 +43 +45 опасность
перегрева
1004.2 1002.8
12 21.09 штиль 0 6000 м 8/6 300 м
[Cb calv Ci fib]
+27.5 +26.9 97 +43 +43 опасность
перегрева
1005.3 1003.9 +31.5 10
00 22.09 штиль 0 6000 м {гроза} 8/6 300 м
[Cb cap Ac trans]
+25.0 +25.0 100 +36 +36 очень
душно
1008.3 1006.9 +23.8
03 22.09 В 3 6000 м 9/6 300 м
[Cb cap Ac As]
+28.5 +26.4 88 +43 +45 опасность
перегрева
1010.1 1008.7
06 22.09 ЮЗ 3 6000 м слаб. дождь 9/6 300 м
[Cb cap Ac As]
+27.0 +26.3 96 +41 +44 опасность
перегрева
1008.8 1007.4
09 22.09 ЮЗ 4 7000 м {морось} 8/6 300 м
[Cb cap Ac trans]
+30.5 +25.3 74 +44 +46 опасность
перегрева
1006.9 1005.5
12 22.09 Ю 4 6000 м 5/4 300 м
[Cu Sc Ac trans]
+27.6 +25.9 90 +41 +41 опасность
перегрева
1007.3 1005.9 +31.2 4
00 23.09 штиль 0 4000 м дымка 8/5 300 м
[Cu Sc Ac trans]
+24.5 +24.5 100 +34 +34 очень
душно
1011.0 1009.6 +23.2
03 23.09 ЮВ 4 6000 м 9/5 300 м
[Cu Sc Ac As]
+28.0 +26.8 93 +44 +45 опасность
перегрева
1012.6 1011.2
06 23.09 В 5 7000 м 8/4 300 м
[Cu Sc Ac As]
+31.4 +26.0 73 +47 +50 опасность
перегрева
1010.9 1009.5
09 23.09 В 5 7000 м 5/3 300 м
[Cu Sc Ac As]
+33.0 +27.5 73 +52 +55 опасность
перегрева
1007.9 1006.6
12 23.09 штиль 0 6000 м 4/4 300 м
[Cu Sc]
+29.5 +25.6 80 +44 +44 опасность
перегрева
1008.9 1007.5 +34.0

 

Местоположение метеостанции Хмавби (Мьянма): широта 17.11 долгота 96.03 высота над уровнем моря 12 м.

В архиве по умолчанию представлена погода в Хмавби за последнюю неделю. Архивные данные за месяц целиком и за предыдущие месяцы, начиная с января 2011 года, Вы можете получить, выбрав интересующий диапазон дат из раскрывающегося списка и нажав кнопку "Ввод!".


*Определитесь, кто Вы:
робот инопланетянин человек

Внимание! Время в таблицах - всемирное. Для получения местного времени необходимо прибавить поправку, которая равна 6.5 ч.

Смотрите также архив погоды в соседних городах и на ближайших метеорологических станциях:

Погода в Мингаладоне (Мьянма) (28 км)
Погода у Янгоне (Мьянма) (41 км)
Погода в Пегу (Мьянма) (56 км)
Погода в Маубине (Мьянма) (58 км)
Погода в Хинтаде (Мьянма) (90 км)
Погода в Пхьяпоуне (Мьянма) (101 км)
Погода в Бассейне (Мьянма) (139 км)
Погода в Гва (Мьянма) (163 км)
Погода в Пхаане (Мьянма) (179 км)
Погода в Моламьяйне (Мьянма) (182 км)

Пояснения к столбцам:

Ветер - указаны скорость ветра в м/с - средняя за 10 мин, порывы в срок и между сроками (в фигурных скобках) и направление, откуда дует ветер: С - северный, СВ - северо-восточный, В - восточный, ЮВ - юго-восточный, Ю - южный, ЮЗ - юго-западный, З - западный, СЗ - северо-западный.
Видимость - горизонтальная дальность видимости в метрах или километрах. При видимости от 1 до 10 км при отсутствии осадков обычно наблюдается дымка, при ухудшении видимости до 1 км и менее - туман. В сухую погоду видимость может ухудшаться дымом, пылью или мглою.
Явления - указаны атмосферные явления, наблюдавшиеся в срок или в последний час перед сроком; фигурными скобками обозначены явления, наблюдавшиеся между сроками (за 1-3 часа до срока); квадратными скобками обозначены град или гололедные отложения с указанием их диаметра в мм.
Облачность - указаны через наклонную черту общая и нижняя облачность в баллах и высота нижней границы облаков в метрах; квадратными скобками обозначены формы облаков: Ci - перистые, Cs - перисто-слоистые, Cc - перисто-кучевые, Ac - высококучевые, As - высокослоистые, Sc - слоисто-кучевые, Ns - слоисто-дождевые, Cu - кучевые, Cb - кучево-дождевые. Подробнее классификацию облаков см. в Атласе облаков (PDF).
T - Температура воздуха - температура, измеренная на высоте 2 м над землей.
Td - Температура точки росы - температура, при понижении до которой содержащийся в воздухе водяной пар достигнет насыщения.
f - Относительная влажность воздуха - влажноcть воздуха, измеренная на высоте 2 м над землей.
Te - Эффективная температура - температура, которую ощущает одетый по сезону человек в тени. Характеристика душности погоды. При расчете учитывается влияние влажности воздуха и скорости ветра на теплоощущения человека.
Tes - Эффективная температура на солнце - температура, которую ощущает человек, с поправкой на солнечный нагрев. Характеристика знойности погоды. Зависит от высоты солнца над горизонтом, облачности и скорости ветра. Ночью, в пасмурную погоду, а также при ветре 12 м/с и более поправка равна нулю.
P - Атмосферное давление - приведенное к уровню моря атмосферное давление.
Po - Атмосферное давление - измеренное на уровне метеостанции атмосферное давление.
Tmin - Минимальная температура - минимум температуры воздуха на высоте 2 м над землей.
Tmax - Максимальная температура - максимум температуры воздуха на высоте 2 м над землей.
R - Количество осадков - Количество выпавших осадков за период времени, мм. При наведении курсора мыши на число - период времени, за который выпало указанное количество осадков.
R24 - Количество осадков - Количество выпавших осадков за 24 часа, мм.
S - Снежный покров - Высота снежного покрова, см. При наведении курсора мыши на число - состояние снежного покрова и степень покрытия местности в баллах.